EW3721 Weather Reports


Display with metric or nautical units.
time (UTC)temp
F
wind
direction
speed
MPH
gust
MPH
rain 1hr
in
rain 24hr
in
rain mn
in
humidity
%
barometer
mb
20180619105225 74 253 0.0 1.0 0.01 0.04 0.02 95 1006.8
20180619104225 74 252 0.0 2.0 0.01 0.04 0.02 95 1006.7
20180619103224 74 250 0.0 2.0 0.01 0.04 0.02 95 1006.4
20180619102224 74 236 1.0 3.0 0.01 0.04 0.02 95 1006.3
20180619101224 74 236 1.0 3.0 0.00 0.03 0.01 95 1006.0
20180619100224 74 236 0.0 2.0 0.00 0.03 0.01 94 1005.9
20180619094224 74 252 0.0 1.0 0.00 0.03 0.01 94 1005.9
20180619093224 74 253 2.0 7.0 0.00 0.03 0.01 94 1005.7
20180619092224 74 35 0.0 2.0 0.00 0.03 0.01 95 1005.4
20180619091225 74 282 0.0 3.0 0.00 0.03 0.01 95 1005.4
20180619090224 74 222 2.0 7.0 0.00 0.03 0.01 95 1005.5
20180619085224 74 172 2.0 10.0 0.00 0.03 0.01 95 1005.5
20180619084223 74 191 1.0 3.0 0.00 0.03 0.01 95 1005.5
20180619083224 74 78 0.0 5.0 0.00 0.03 0.01 95 1005.3
20180619082223 74 103 0.0 3.0 0.00 0.03 0.01 95 1005.2
20180619081224 74 251 0.0 3.0 0.00 0.03 0.01 95 1005.1
20180619080224 74 232 0.0 2.0 0.01 0.03 0.01 95 1005.2
20180619075224 74 228 1.0 3.0 0.01 0.03 0.01 95 1005.2
20180619074224 74 242 0.0 3.0 0.01 0.03 0.01 94 1005.3
20180619073225 74 109 0.0 2.0 0.01 0.03 0.01 95 1005.4
20180619072224 74 160 2.0 5.0 0.01 0.03 0.01 95 1005.3
20180619071224 74 184 1.0 3.0 0.01 0.03 0.01 95 1005.3
20180619070223 74 138 0.0 3.0 0.00 0.02 0.00 95 1005.4
20180619065224 74 118 0.0 3.0 0.00 0.02 0.00 95 1005.6
20180619064225 74 35 0.0 5.0 0.00 0.02 0.00 95 1005.8
20180619062223 74 198 0.0 5.0 0.00 0.02 0.00 95 1006.0
20180619061223 74 128 1.0 3.0 0.00 0.02 0.00 95 1005.8
20180619060224 74 127 0.0 2.0 0.00 0.02 0.00 96 1005.7
20180619055223 74 150 1.0 3.0 0.00 0.02 0.00 96 1005.9
20180619054223 73 117 0.0 3.0 0.00 0.02 0.00 96 1006.0
20180619053224 73 110 0.0 3.0 0.00 0.02 0.00 96 1006.0
20180619052223 73 100 0.0 3.0 0.00 0.02 0.00 95 1006.1
20180619051223 73 17 0.0 3.0 0.00 0.02 0.00 95 1006.1
20180619050223 72 155 0.0 2.0 0.00 0.02 0.00 96 1006.2
20180619045222 72 248 0.0 3.0 0.00 0.02 0.00 95 1006.3
20180619044223 72 80 0.0 0.0 0.00 0.02 0.00 95 1006.5
20180619043223 71 80 0.0 3.0 0.00 0.02 0.00 94 1006.5
20180619042223 71 143 0.0 2.0 0.00 0.02 0.00 94 1006.7
20180619041222 71 143 1.0 3.0 0.00 0.02 0.00 94 1006.9
20180619040223 71 159 0.0 2.0 0.00 0.02 0.00 94 1007.0
20180619035224 71 158 0.0 2.0 0.00 0.02 0.02 93 1007.3
20180619034224 71 179 0.0 2.0 0.00 0.02 0.02 93 1007.5
20180619033223 71 195 0.0 1.0 0.00 0.02 0.02 92 1007.8
20180619032223 71 210 0.0 0.0 0.00 0.02 0.02 92 1008.0
20180619031223 72 210 0.0 0.0 0.00 0.02 0.02 92 1008.1
20180619030223 72 210 0.0 1.0 0.00 0.02 0.02 92 1008.3
20180619025223 72 210 0.0 0.0 0.00 0.02 0.02 93 1008.5
20180619024222 73 210 0.0 1.0 0.00 0.02 0.02 93 1008.5
20180619023222 73 210 0.0 3.0 0.00 0.02 0.02 93 1009.0
20180619022222 73 173 0.0 2.0 0.00 0.02 0.02 93 1009.2
20180619021223 73 236 0.0 2.0 0.00 0.02 0.02 92 1009.2
20180619020223 72 209 2.0 3.0 0.00 0.02 0.02 92 1009.0
20180619015224 73 205 0.0 1.0 0.00 0.02 0.02 91 1009.0
20180619014223 73 205 0.0 2.0 0.01 0.02 0.02 91 1008.8
20180619013223 73 220 0.0 2.0 0.02 0.02 0.02 90 1008.6
20180619012223 73 182 0.0 0.0 0.02 0.02 0.02 90 1008.6
20180619011222 73 182 0.0 1.0 0.02 0.02 0.02 89 1008.5
20180619010223 74 151 0.0 5.0 0.02 0.02 0.02 88 1008.3
20180619005222 74 127 1.0 3.0 0.02 0.02 0.02 87 1008.3
20180619004222 75 75 2.0 6.0 0.01 0.01 0.01 83 1008.4
20180619003222 76 149 1.0 9.0 0.00 0.00 0.00 78 1008.8
20180619002222 76 217 3.0 10.0 0.00 0.00 0.00 74 1008.6
20180619001222 76 219 2.0 7.0 0.00 0.00 0.00 73 1008.1
20180619000223 77 147 1.0 3.0 0.00 0.00 0.00 74 1008.4
20180618235222 77 177 1.0 3.0 0.00 0.00 0.00 73 1008.6
20180618234222 77 155 0.0 3.0 0.00 0.00 0.00 74 1008.5
20180618233223 78 143 0.0 6.0 0.00 0.00 0.00 72 1008.6
20180618232222 78 157 1.0 7.0 0.00 0.00 0.00 72 1008.8
20180618231222 78 136 1.0 5.0 0.00 0.00 0.00 72 1008.8
20180618230222 78 20 2.0 8.0 0.00 0.00 0.00 71 1008.8
20180618225221 79 165 2.0 10.0 0.00 0.00 0.00 70 1008.7
20180618224221 79 132 2.0 7.0 0.00 0.00 0.00 70 1008.8
20180618223221 80 71 1.0 7.0 0.00 0.00 0.00 70 1008.6
20180618222222 81 66 3.0 9.0 0.00 0.00 0.00 68 1008.8
20180618221222 81 106 3.0 13.0 0.00 0.00 0.00 68 1008.7
20180618220222 82 63 1.0 10.0 0.00 0.00 0.00 69 1008.9
20180618215223 81 188 1.0 7.0 0.00 0.00 0.00 68 1009.0
20180618214222 81 140 1.0 9.0 0.00 0.00 0.00 70 1009.2
20180618213221 82 163 1.0 5.0 0.00 0.00 0.00 68 1009.5
20180618212222 82 174 1.0 7.0 0.00 0.00 0.00 69 1009.6
20180618211221 83 94 0.0 5.0 0.00 0.00 0.00 67 1009.8
20180618210222 84 188 1.0 8.0 0.00 0.00 0.00 66 1010.0
20180618205221 84 106 1.0 3.0 0.00 0.00 0.00 66 1010.4
20180618204221 85 133 2.0 9.0 0.00 0.00 0.00 65 1010.5
20180618203220 85 150 3.0 9.0 0.00 0.00 0.00 65 1010.5
20180618202222 86 130 2.0 12.0 0.00 0.00 0.00 65 1010.5
20180618201222 86 122 2.0 10.0 0.00 0.00 0.00 64 1010.6
20180618200222 85 102 1.0 7.0 0.00 0.00 0.00 65 1010.7
20180618195221 85 120 1.0 9.0 0.00 0.00 0.00 66 1010.8
20180618194221 86 126 3.0 12.0 0.00 0.00 0.00 63 1011.0
20180618193221 86 171 5.0 12.0 0.00 0.00 0.00 64 1011.2
20180618192220 87 158 2.0 8.0 0.00 0.00 0.00 65 1011.2
20180618191220 87 237 2.0 6.0 0.00 0.00 0.00 64 1011.4
20180618190221 88 58 3.0 9.0 0.00 0.00 0.00 65 1011.6
20180618185220 88 131 2.0 10.0 0.00 0.00 0.00 67 1011.7
20180618184220 87 159 2.0 8.0 0.00 0.00 0.00 63 1011.7
20180618183221 87 186 2.0 13.0 0.00 0.00 0.00 65 1011.9
20180618182221 88 48 2.0 9.0 0.00 0.00 0.00 63 1011.9
20180618181221 88 144 2.0 10.0 0.00 0.00 0.00 63 1012.3
20180618180221 88 132 3.0 12.0 0.00 0.00 0.00 62 1012.3
20180618175220 89 163 3.0 10.0 0.00 0.00 0.00 63 1012.6
20180618174220 89 131 4.0 12.0 0.00 0.00 0.00 63 1012.7
20180618173220 89 40 1.0 12.0 0.00 0.00 0.00 64 1012.8
20180618172220 88 117 2.0 8.0 0.00 0.00 0.00 66 1013.0
20180618171220 88 82 4.0 12.0 0.00 0.00 0.00 61 1013.1
20180618170221 88 155 3.0 7.0 0.00 0.00 0.00 66 1013.3
20180618165220 88 34 2.0 8.0 0.00 0.00 0.00 63 1013.5
20180618164219 88 117 1.0 7.0 0.00 0.00 0.00 65 1013.5
20180618163220 87 115 1.0 6.0 0.00 0.00 0.00 63 1013.7
20180618162220 87 137 5.0 10.0 0.00 0.00 0.00 63 1013.7
20180618161221 87 131 1.0 5.0 0.00 0.00 0.00 62 1013.8
20180618160221 87 145 2.0 7.0 0.00 0.00 0.00 64 1013.8
20180618155221 86 187 2.0 9.0 0.00 0.00 0.00 69 1013.9
20180618154220 86 158 1.0 7.0 0.00 0.00 0.00 64 1014.2
20180618153219 86 129 1.0 10.0 0.00 0.00 0.00 66 1014.3
20180618152219 85 90 2.0 3.0 0.00 0.00 0.00 68 1014.4
20180618151219 85 138 1.0 6.0 0.00 0.00 0.00 67 1014.5
20180618150219 84 250 1.0 6.0 0.00 0.00 0.00 69 1014.5
20180618145220 84 114 2.0 3.0 0.00 0.00 0.00 69 1014.6
20180618144220 83 86 1.0 3.0 0.00 0.00 0.00 69 1014.7
20180618143220 83 82 2.0 6.0 0.00 0.00 0.00 70 1014.8
20180618142219 82 51 1.0 12.0 0.00 0.00 0.00 69 1014.8
20180618141220 82 117 1.0 7.0 0.00 0.00 0.00 72 1015.0
20180618140221 81 82 2.0 5.0 0.00 0.00 0.00 72 1015.1
20180618135219 81 52 1.0 9.0 0.00 0.00 0.00 73 1015.3
20180618134218 80 141 0.0 3.0 0.00 0.00 0.00 74 1015.3
20180618133220 79 52 1.0 5.0 0.00 0.00 0.00 75 1015.5
20180618132220 78 74 3.0 7.0 0.00 0.00 0.00 74 1015.6
20180618131220 78 116 2.0 3.0 0.00 0.00 0.00 75 1015.7
20180618130220 77 56 1.0 5.0 0.00 0.00 0.00 78 1015.6
20180618125220 76 70 1.0 7.0 0.00 0.00 0.00 80 1015.9
20180618124220 74 155 0.0 3.0 0.00 0.00 0.00 83 1016.2
20180618123220 73 86 1.0 3.0 0.00 0.00 0.00 86 1016.2
20180618122220 71 125 0.0 2.0 0.00 0.00 0.00 89 1016.2
20180618121219 70 129 0.0 3.0 0.00 0.00 0.00 92 1016.2
20180618120219 69 97 0.0 3.0 0.00 0.00 0.00 95 1016.3
20180618115219 67 186 0.0 3.0 0.00 0.00 0.00 96 1016.4
20180618114219 66 204 0.0 2.0 0.00 0.00 0.00 97 1016.4
20180618113218 65 108 0.0 1.0 0.00 0.00 0.00 97 1016.4
20180618112218 64 108 0.0 1.0 0.00 0.00 0.00 97 1016.4
20180618111219 63 108 0.0 1.0 0.00 0.00 0.00 97 1016.5
20180618110220 62 108 0.0 0.0 0.00 0.00 0.00 96 1016.5